[[{"header":{"parameterUnit":"m.s-1","parameterCategory":2,"la1":30.2991,"la2":30.254,"lo1":-89.0895,"lo2":-89.0444,"dy":0.0017,"dx":0.0017,"nx":28,"ny":28,"refTime":"2024-10-12T03:00:00:Z","depth":"0","parameterNumber":2,"parameterNumberName":"U-component_of_CURRENTS"},"data":[0,0,0,0,0,0,0,0,0,0,0,0,0,0,0,0,0,0,0,0,0,0,0,0,0,0,0,0,0,0,0,0,0,0,0,0,0,0,0,0,0,0,0,0,0,0,0,0,0,0,0,0,0,0,0,0,0,0,0.376,0.376,0,0.3782,0.3782,0.3782,0.3786,0.3786,0.3786,0.3786,0.3757,0.3756,0.3755,0,0,0,0,0,0,0,0,0,0,0,0,0,0.3716,0.3716,0.376,0.376,0.3761,0.3782,0.3782,0.3782,0.3786,0.3786,0.3786,0.3786,0.3757,0.3756,0.3755,0,0,0,0,0,0,0,0,0,0,0,0,0,0.3733,0.3717,0.3759,0.3767,0.3769,0.3782,0.3782,0.3782,0.3786,0.3786,0.3786,0.3786,0.3758,0.3756,0.3755,0.3744,0,0,0.3751,0.3751,0,0,0,0,0,0,0,0,0.3732,0.3734,0.3766,0.3767,0.3768,0.3784,0.3756,0.3768,0.3786,0.3776,0.3786,0.3786,0.3763,0.3762,0.3762,0.3743,0.3741,0.3751,0.375,0.375,0.3749,0,0,0,0,0,0,0,0.3731,0.3733,0.3765,0.3766,0.3768,0.3769,0.3771,0.3758,0.3765,0.3777,0.3778,0.3785,0.3763,0.3763,0.3761,0.3741,0.3751,0.375,0.3749,0.3749,0.3781,0.3782,0,0,0,0,0,0,0.3735,0.3732,0.3764,0.3766,0.3754,0.377,0.3772,0.3776,0.3766,0.3766,0.3785,0.3785,0.3765,0.3762,0.376,0.3795,0.375,0.3749,0.3748,0.3779,0.3781,0.3783,0,0,0,0,0,0,0.3734,0.3737,0.3764,0.3752,0.3756,0.377,0.3775,0.3777,0.3779,0.3774,0.3772,0.3787,0.3765,0.3762,0.3764,0.3792,0.3748,0.3747,0.3777,0.378,0.3782,0.3833,0,0,0,0,0,0,0.3732,0.3736,0.3737,0.3753,0.3757,0.3778,0.3775,0.3777,0.3785,0.3786,0.3775,0.3772,0.3765,0.3766,0.3763,0.3789,0.3746,0.3775,0.3778,0.3781,0.3829,0.3837,0.3843,0,0,0,0,0,0.373,0.3727,0.3737,0.3741,0.3759,0.3779,0.3781,0.3789,0.3785,0.379,0.3789,0.3773,0.3784,0.3766,0.3761,0.3788,0.3774,0.3778,0.3781,0.3826,0.3835,0.3843,0,0,0,0,0,0,0.3699,0.3728,0.3739,0.3743,0.3765,0.3781,0.3779,0.3789,0.3792,0.3787,0.378,0.3778,0.3793,0.3784,0.3765,0.381,0.3781,0.3784,0.3817,0.3825,0.3832,0.3771,0.3745,0,0,0,0,0,0.3696,0.3702,0.3736,0.3735,0.3747,0.3764,0.3771,0.3781,0.3789,0.379,0.3785,0.3789,0.3805,0.3809,0.3808,0.3823,0.3831,0.3844,0.3851,0.3857,0.3806,0.3871,0.3879,0.3795,0.3795,0.3795,0,0,0.3679,0.3698,0.3699,0.3729,0.374,0.3751,0.3767,0.3778,0.3783,0.3785,0.3779,0.3802,0.3812,0.3837,0.3845,0.3833,0.3897,0.3861,0.3866,0.3811,0.3876,0.3884,0.3891,0.3798,0.3797,0.3797,0,0,0.365,0.367,0.3669,0.3691,0.372,0.3737,0.3743,0.3766,0.3774,0.3787,0.38,0.3828,0.3841,0.386,0.3872,0.3912,0.3928,0.3938,0.3925,0.3991,0.3998,0.4004,0.4072,0.4083,0.3948,0.3948,0.3948,0,0.3624,0.3638,0.367,0.3679,0.3693,0.373,0.3734,0.3748,0.3768,0.3783,0.3788,0.3837,0.3844,0.3887,0.3904,0.3923,0.3968,0.3895,0.3999,0.4005,0.4009,0.4078,0.4089,0.3951,0.3951,0.395,0.395,0,0.3605,0.3616,0.3615,0.3641,0.3661,0.3671,0.3707,0.3725,0.3746,0.3771,0.3816,0.3842,0.3873,0.3906,0.3907,0.3962,0.3988,0.3999,0.3973,0.4021,0.4091,0.4102,0.3955,0.3954,0.3953,0.3953,0,0,0.354,0.3592,0.359,0.3601,0.3646,0.3655,0.3677,0.3717,0.3736,0.3773,0.3806,0.3845,0.3875,0.3886,0.3924,0.3967,0.4061,0.3992,0.3995,0.405,0.4225,0.426,0.4276,0.4111,0.4112,0.4113,0.4277,0,0.3512,0.3523,0.356,0.3563,0.3574,0.3625,0.3643,0.3685,0.373,0.3771,0.3824,0.3865,0.3869,0.3906,0.3949,0.4028,0.4084,0.4014,0.4174,0.4177,0.4196,0.4287,0.4129,0.4262,0.4288,0.429,0.4291,0,0.348,0.3497,0.3499,0.3542,0.3551,0.3558,0.361,0.3635,0.3712,0.3755,0.3814,0.3861,0.3926,0.3926,0.4065,0.4033,0.4108,0.4166,0.4176,0.4176,0.4231,0.421,0.4281,0.406,0.4308,0.4306,0.4305,0,0.3418,0.3451,0.3451,0.3463,0.3516,0.3527,0.3558,0.3628,0.3657,0.3748,0.3789,0.3882,0.3934,0.4034,0.4149,0.4125,0.431,0.4308,0.4409,0.4414,0.4284,0.4275,0.4135,0.4391,0.4391,0.439,0.439,0,0.3376,0.3369,0.3422,0.3418,0.3424,0.348,0.3498,0.3554,0.3632,0.3678,0.3769,0.383,0.3961,0.4084,0.4177,0.4342,0.4353,0.4402,0.4458,0.4306,0.4297,0.41,0.4015,0.4397,0.4395,0.4394,0.4393,0,0.3294,0.3331,0.3329,0.3378,0.3391,0.3392,0.345,0.3473,0.3561,0.3626,0.3658,0.3811,0.3991,0.4137,0.4326,0.4388,0.4407,0.459,0.4406,0.4436,0.4305,0.4231,0.4092,0.399,0.4722,0.4723,0.4725,0,0.3249,0.3244,0.3278,0.3277,0.3293,0.331,0.3328,0.3422,0.3461,0.3618,0.3651,0.3841,0.3985,0.429,0.4448,0.4657,0.4465,0.4604,0.4506,0.4269,0.4228,0.4071,0.3981,0.4377,0.4376,0.4375,0.4374,0,0.3166,0.3179,0.3185,0.3185,0.3194,0.3205,0.3248,0.3275,0.34,0.3484,0.3636,0.3768,0.4073,0.4219,0.4488,0.4595,0.4338,0.4589,0.4372,0.3961,0.3747,0.3685,0.4305,0.4363,0.4364,0.4365,0.4366,0.4366,0.3096,0.3082,0.3095,0.3085,0.3098,0.3103,0.3099,0.3179,0.3255,0.3385,0.3556,0.3726,0.3914,0.4287,0.4377,0.4319,0.4331,0.4175,0.4119,0.3992,0.3815,0.4425,0.4532,0.4534,0.4535,0.4537,0.4538,0,0.2999,0.3,0.2994,0.2985,0.2963,0.3002,0.3043,0.3048,0.3124,0.3308,0.3449,0.3594,0.3717,0.3857,0.3908,0.3809,0.3682,0.3676,0.3336,0.3288,0.3846,0.3746,0.3649,0.3649,0.3649,0.3649,0.365,0.365,0.2949,0.2911,0.2914,0.2854,0.2849,0.2812,0.2825,0.2869,0.2984,0.3087,0.3175,0.3282,0.335,0.3359,0.3227,0.3213,0.2936,0.2872,0.2848,0.3129,0.3166,0.3201,0.308,0.2844,0.2844,0.2148,0.2142,0.2137]},{"header":{"parameterUnit":"m.s-1","parameterCategory":2,"la1":30.2991,"la2":30.254,"lo1":-89.0895,"lo2":-89.0444,"dy":0.0017,"dx":0.0017,"nx":28,"ny":28,"refTime":"2024-10-12T03:00:00:Z","depth":"0","parameterNumber":3,"parameterNumberName":"V-component_of_CURRENTS"},"data":[0,0,0,0,0,0,0,0,0,0,0,0,0,0,0,0,0,0,0,0,0,0,0,0,0,0,0,0,0,0,0,0,0,0,0,0,0,0,0,0,0,0,0,0,0,0,0,0,0,0,0,0,0,0,0,0,0,0,-0.0055,-0.0055,0,-0.0081,-0.0081,-0.0081,-0.0115,-0.0115,-0.0116,-0.0116,-0.0169,-0.017,-0.0171,0,0,0,0,0,0,0,0,0,0,0,0,0,-0.0047,-0.0047,-0.0055,-0.0055,-0.0055,-0.0081,-0.0081,-0.0081,-0.0115,-0.0115,-0.0116,-0.0116,-0.0168,-0.017,-0.0171,0,0,0,0,0,0,0,0,0,0,0,0,0,-0.006,-0.0047,-0.0055,-0.0074,-0.0076,-0.008,-0.0081,-0.0082,-0.0114,-0.0115,-0.0116,-0.0117,-0.0168,-0.0169,-0.0171,-0.0165,0,0,-0.0175,-0.0176,0,0,0,0,0,0,0,0,-0.0059,-0.006,-0.0071,-0.0073,-0.0075,-0.0095,-0.0098,-0.0111,-0.0114,-0.0101,-0.0116,-0.0117,-0.0145,-0.0149,-0.0153,-0.0168,-0.017,-0.0175,-0.0176,-0.0177,-0.0177,0,0,0,0,0,0,0,-0.0058,-0.0059,-0.0066,-0.0071,-0.0074,-0.0086,-0.0089,-0.01,-0.012,-0.0102,-0.0104,-0.0106,-0.0147,-0.0151,-0.0154,-0.0171,-0.0175,-0.0177,-0.0177,-0.0178,-0.0156,-0.0155,0,0,0,0,0,0,-0.0052,-0.0058,-0.0065,-0.0066,-0.0068,-0.0086,-0.0089,-0.0088,-0.0119,-0.0124,-0.0105,-0.0107,-0.0148,-0.0152,-0.0156,-0.013,-0.0177,-0.0178,-0.0179,-0.0157,-0.0156,-0.0154,0,0,0,0,0,0,-0.0052,-0.0052,-0.0064,-0.0063,-0.0065,-0.0085,-0.0084,-0.0088,-0.0093,-0.0121,-0.0127,-0.0106,-0.0149,-0.0154,-0.0152,-0.0133,-0.0179,-0.018,-0.0159,-0.0157,-0.0155,-0.0091,0,0,0,0,0,0,-0.0051,-0.0052,-0.0048,-0.0062,-0.0065,-0.0061,-0.0084,-0.0088,-0.0093,-0.0096,-0.0124,-0.013,-0.015,-0.015,-0.0154,-0.0136,-0.0181,-0.0161,-0.0158,-0.0155,-0.0095,-0.0087,-0.008,0,0,0,0,0,-0.0051,-0.0041,-0.0047,-0.0048,-0.0059,-0.006,-0.0062,-0.008,-0.0092,-0.0088,-0.01,-0.0129,-0.0136,-0.015,-0.0155,-0.0137,-0.0162,-0.0159,-0.0156,-0.0098,-0.0088,-0.008,0,0,0,0,0,0,-0.0036,-0.0044,-0.0051,-0.0045,-0.0049,-0.0065,-0.0063,-0.0075,-0.0082,-0.0083,-0.0113,-0.0118,-0.0111,-0.0128,-0.0143,-0.012,-0.0152,-0.015,-0.0107,-0.0098,-0.0091,-0.0073,-0.0182,0,0,0,0,0,-0.003,-0.0023,-0.0035,-0.0027,-0.0029,-0.0045,-0.0048,-0.0057,-0.0065,-0.007,-0.0087,-0.0098,-0.01,-0.0102,-0.0111,-0.0099,-0.0121,-0.0089,-0.0081,-0.0075,-0.0061,-0.0079,-0.0072,-0.0143,-0.0143,-0.0143,0,0,-0.0022,-0.0024,-0.0022,-0.0023,-0.003,-0.0016,-0.0049,-0.0046,-0.0029,-0.0074,-0.0057,-0.0077,-0.0091,-0.0076,-0.0074,-0.0089,-0.0065,-0.0071,-0.0065,-0.0055,-0.0075,-0.0068,-0.0062,-0.0141,-0.0142,-0.0142,0,0,0.0002,-0.0005,0.001,0.0012,0.001,0.0006,0.0009,-0.0002,-0.0003,0.0011,-0.0013,-0.0015,-0.0023,-0.0025,-0.0028,0.0018,-0.0027,0.0012,0.0065,0.0049,0.0054,0.0059,0.0041,0.0043,0.0019,0.0019,0.0019,0,0.0013,0.0032,0.0014,0.0034,0.0045,0.002,0.0046,0.0046,0.004,0.0048,0.0027,0.0027,0.0007,0.0032,0.0049,0.0034,0.0015,0.003,0.0057,0.0061,0.0065,0.0045,0.0047,0.0022,0.0022,0.0022,0.0021,0,0.005,0.0068,0.0079,0.0099,0.0108,0.0126,0.0126,0.0136,0.013,0.0128,0.0142,0.0117,0.0115,0.0111,0.0095,0.0117,0.0091,0.0064,0.0032,0.0076,0.0053,0.0053,0.0027,0.0026,0.0025,0.0024,0,0,0.0073,0.0099,0.0107,0.0131,0.0146,0.0161,0.0195,0.0218,0.0247,0.0231,0.026,0.0253,0.0223,0.022,0.019,0.0184,0.0187,0.0141,0.0139,0.012,0.0148,0.017,0.0172,0.0158,0.0158,0.0159,0.0122,0,0.0111,0.0162,0.0166,0.0225,0.0253,0.0253,0.0292,0.031,0.0315,0.0335,0.0308,0.0316,0.0268,0.0264,0.025,0.0205,0.0192,0.02,0.0113,0.0111,0.0121,0.0175,0.022,0.0195,0.0122,0.0122,0.0122,0,0.0153,0.0184,0.0242,0.0298,0.0311,0.0341,0.0397,0.0426,0.0445,0.0446,0.0439,0.0408,0.0398,0.0344,0.0288,0.0292,0.023,0.019,0.0186,0.0187,0.0135,0.014,0.0198,0.0035,0.0123,0.0123,0.0123,0,0.019,0.0245,0.0294,0.0312,0.0365,0.0394,0.0422,0.0457,0.0493,0.0505,0.0522,0.0493,0.0481,0.0407,0.0324,0.0299,0.0262,0.0208,0.0169,0.0168,0.0183,0.0184,0.0073,0.0166,0.0166,0.0166,0.0166,0,0.0238,0.0283,0.0313,0.0344,0.0415,0.0432,0.0504,0.0528,0.0564,0.0613,0.057,0.0599,0.0496,0.0458,0.0361,0.0286,0.0282,0.0198,0.0171,0.0207,0.0211,0.0049,-0.0047,0.0165,0.0165,0.0166,0.0166,0,0.0281,0.0298,0.0362,0.0415,0.0434,0.0484,0.0553,0.0608,0.0625,0.0684,0.0687,0.0681,0.0646,0.0548,0.0445,0.0346,0.0196,0.0228,0.0284,0.0265,0.0074,-0.0018,-0.0102,-0.015,0.0176,0.0176,0.0177,0,0.031,0.0344,0.0411,0.0452,0.0477,0.0543,0.0599,0.0636,0.069,0.074,0.0777,0.0767,0.0798,0.0672,0.0521,0.0381,0.0228,0.0286,0.025,0.0091,-0.0034,-0.0077,-0.0116,0.0284,0.0285,0.0286,0.0287,0,0.0369,0.0386,0.0437,0.0514,0.0573,0.0648,0.0717,0.0767,0.0814,0.0875,0.0943,0.0974,0.0884,0.0817,0.0637,0.0502,0.0203,0.0302,0.0121,0.0044,0.0007,-0.0062,0.0266,0.0296,0.0295,0.0295,0.0294,0.0294,0.0411,0.0454,0.051,0.0585,0.0658,0.0744,0.0808,0.0892,0.0993,0.1113,0.1111,0.1252,0.1085,0.0881,0.0657,0.0279,0.0267,0.015,0.0051,0.0022,-0.0017,0.0341,0.0351,0.035,0.035,0.0349,0.0349,0,0.0457,0.0501,0.0578,0.0666,0.0751,0.0776,0.0887,0.0964,0.1095,0.1292,0.1395,0.1489,0.1231,0.0914,0.0413,0.0099,-0.002,-0.0105,-0.0185,-0.0215,0.0089,0.01,0.0077,0.0077,0.0077,0.0077,0.0078,0.0078,0.0484,0.0552,0.0588,0.0722,0.0789,0.0895,0.096,0.1092,0.1262,0.1549,0.1759,0.1898,0.1636,0.0631,-0.0055,-0.0223,-0.0458,-0.048,-0.062,-0.0466,-0.0451,-0.0437,-0.045,-0.0587,-0.0588,-0.0849,-0.0852,-0.0855]}],[{"header":{"parameterUnit":"m.s-1","parameterCategory":2,"la1":30.2991,"la2":30.254,"lo1":-89.0895,"lo2":-89.0444,"dy":0.0017,"dx":0.0017,"nx":28,"ny":28,"refTime":"2024-10-12T03:00:00:Z","depth":"2","parameterNumber":2,"parameterNumberName":"U-component_of_CURRENTS"},"data":[0,0,0,0,0,0,0,0,0,0,0,0,0,0,0,0,0,0,0,0,0,0,0,0,0,0,0,0,0,0,0,0,0,0,0,0,0,0,0,0,0,0,0,0,0,0,0,0,0,0,0,0,0,0,0,0,0,0,0.2679,0.268,0,0.273,0.2731,0.2731,0.2754,0.2754,0.2754,0.2754,0.2765,0.2765,0.2765,0,0,0,0,0,0,0,0,0,0,0,0,0,0.2627,0.2628,0.2679,0.268,0.268,0.273,0.2731,0.2732,0.2754,0.2754,0.2754,0.2754,0.2765,0.2765,0.2765,0,0,0,0,0,0,0,0,0,0,0,0,0,0.266,0.2628,0.2679,0.2698,0.27,0.273,0.2731,0.2732,0.2754,0.2754,0.2754,0.2754,0.2765,0.2765,0.2765,0.2769,0,0,0.2767,0.2767,0,0,0,0,0,0,0,0,0.2659,0.2662,0.2694,0.2697,0.2699,0.2736,0.2717,0.2742,0.2754,0.2733,0.2754,0.2754,0.2752,0.2753,0.2763,0.2769,0.277,0.2767,0.2767,0.2767,0.2768,0,0,0,0,0,0,0,0.2656,0.266,0.2699,0.2695,0.2698,0.2713,0.2718,0.2722,0.2741,0.2735,0.2737,0.2743,0.2753,0.2762,0.2763,0.277,0.2767,0.2767,0.2768,0.2768,0.2842,0.2844,0,0,0,0,0,0,0.265,0.2658,0.2697,0.27,0.2679,0.2714,0.2719,0.2724,0.2742,0.2745,0.2743,0.2744,0.2762,0.2763,0.2764,0.2812,0.2767,0.2768,0.2768,0.2841,0.2843,0.2844,0,0,0,0,0,0,0.2648,0.2653,0.2695,0.2681,0.2687,0.2715,0.272,0.2725,0.275,0.2749,0.2751,0.2766,0.2762,0.2763,0.2789,0.2811,0.2768,0.2768,0.2839,0.2841,0.2844,0.2881,0,0,0,0,0,0,0.2647,0.2652,0.2664,0.268,0.2688,0.2723,0.2721,0.2726,0.2754,0.2756,0.2768,0.2768,0.2762,0.2789,0.279,0.2811,0.2769,0.2836,0.284,0.2843,0.2878,0.2884,0.289,0,0,0,0,0,0.2645,0.2656,0.2664,0.2669,0.27,0.2724,0.273,0.2749,0.2755,0.2771,0.2785,0.2769,0.281,0.2791,0.2791,0.2813,0.2835,0.2839,0.2842,0.2875,0.2883,0.289,0,0,0,0,0,0,0.2642,0.266,0.2669,0.2686,0.271,0.2729,0.2746,0.276,0.2785,0.2787,0.2787,0.2789,0.2821,0.2817,0.2796,0.2847,0.2821,0.2825,0.2846,0.2853,0.286,0.289,0.2769,0,0,0,0,0,0.2646,0.2657,0.268,0.2695,0.2707,0.2731,0.2747,0.276,0.2779,0.2791,0.2798,0.2813,0.2836,0.2844,0.2857,0.2881,0.2911,0.2898,0.2905,0.291,0.2938,0.3011,0.3027,0.2857,0.2857,0.2857,0,0,0.2648,0.2661,0.2667,0.2696,0.2713,0.2736,0.2741,0.2767,0.2793,0.2787,0.2822,0.2834,0.2849,0.288,0.2894,0.2879,0.2972,0.2915,0.2919,0.2945,0.3017,0.3033,0.3048,0.286,0.2859,0.2859,0,0,0.2651,0.267,0.2679,0.2701,0.2731,0.2749,0.2761,0.2788,0.281,0.2837,0.2853,0.2892,0.2897,0.2934,0.2948,0.3001,0.3005,0.2994,0.3048,0.3118,0.3132,0.3146,0.3195,0.3212,0.2995,0.2995,0.2995,0,0.2656,0.2668,0.2688,0.2706,0.2727,0.2757,0.2777,0.2808,0.2842,0.2869,0.2849,0.2917,0.2929,0.3002,0.3028,0.3017,0.305,0.3011,0.3127,0.3141,0.3154,0.3201,0.322,0.2997,0.2997,0.2997,0.2997,0,0.2663,0.2681,0.269,0.2721,0.2749,0.2771,0.2813,0.2848,0.2867,0.2894,0.2958,0.2984,0.3025,0.3039,0.305,0.3155,0.3145,0.3125,0.3105,0.3173,0.3218,0.3237,0.3,0.3,0.2999,0.2998,0,0,0.265,0.2686,0.269,0.2706,0.2758,0.2778,0.2836,0.2894,0.2939,0.297,0.3032,0.3091,0.3109,0.3132,0.3155,0.3231,0.335,0.3226,0.3229,0.3273,0.35,0.3245,0.3241,0.3349,0.3353,0.3356,0.3489,0,0.2651,0.2677,0.27,0.2734,0.2755,0.2805,0.2854,0.2915,0.2963,0.3029,0.309,0.3146,0.3141,0.317,0.3246,0.3339,0.3405,0.3316,0.3431,0.3435,0.3198,0.3256,0.2996,0.3071,0.3508,0.3511,0.3513,0,0.2648,0.2669,0.2696,0.2743,0.2757,0.2784,0.2873,0.2918,0.3028,0.3063,0.3138,0.3187,0.3321,0.3289,0.3474,0.3417,0.3468,0.3525,0.353,0.3298,0.3215,0.3078,0.3089,0.3545,0.3543,0.354,0.3538,0,0.2624,0.2664,0.2683,0.27,0.2762,0.279,0.2829,0.2928,0.2974,0.3099,0.3145,0.328,0.3345,0.3461,0.356,0.3539,0.3745,0.3717,0.3533,0.3516,0.332,0.3275,0.3839,0.3838,0.3838,0.3838,0.3837,0,0.2612,0.2629,0.2669,0.268,0.271,0.2764,0.2812,0.2877,0.2976,0.3036,0.3154,0.3223,0.3396,0.3515,0.3603,0.3612,0.3768,0.356,0.3537,0.3318,0.3274,0.3704,0.3686,0.3843,0.3842,0.3841,0.384,0,0.258,0.2608,0.2629,0.2681,0.2694,0.2716,0.2776,0.2815,0.2917,0.3007,0.3052,0.3217,0.3356,0.3497,0.3688,0.3615,0.3692,0.3648,0.3358,0.3292,0.3413,0.3396,0.3471,0.3463,0.3457,0.3451,0.3447,0,0.2567,0.2573,0.2611,0.2614,0.2631,0.2663,0.2684,0.2773,0.2816,0.2987,0.3027,0.319,0.3224,0.3367,0.3346,0.3396,0.3576,0.3141,0.3023,0.3407,0.3379,0.3372,0.3365,0.281,0.28,0.2793,0.2786,0,0.2538,0.2548,0.2558,0.2561,0.2572,0.2582,0.262,0.2646,0.276,0.2826,0.292,0.296,0.3022,0.2912,0.2909,0.2913,0.3104,0.297,0.3514,0.2884,0.2777,0.275,0.2767,0.2717,0.2724,0.2729,0.2733,0.2736,0.2507,0.2497,0.2498,0.2492,0.2498,0.2484,0.2461,0.2502,0.2529,0.2524,0.2676,0.2605,0.2618,0.2421,0.2408,0.2412,0.2596,0.2525,0.2555,0.2591,0.2431,0.2311,0.2137,0.214,0.2143,0.2146,0.2148,0,0.2443,0.2434,0.2426,0.2393,0.2344,0.2393,0.2397,0.2321,0.2286,0.2252,0.2218,0.1988,0.1877,0.1987,0.1836,0.1783,0.1831,0.1775,0.1861,0.1926,0.1986,0.1801,0.1338,0.1336,0.1335,0.1333,0,0,0.2408,0.2358,0.2339,0.2234,0.2217,0.212,0.2102,0.1989,0.1927,0.1714,0.161,0.1611,0.1786,0.1492,0.1478,0.14,0.1654,0.1341,0.198,0.2139,0.2196,0.2392,0.2174,0,0,0,0,0]},{"header":{"parameterUnit":"m.s-1","parameterCategory":2,"la1":30.2991,"la2":30.254,"lo1":-89.0895,"lo2":-89.0444,"dy":0.0017,"dx":0.0017,"nx":28,"ny":28,"refTime":"2024-10-12T03:00:00:Z","depth":"2","parameterNumber":3,"parameterNumberName":"V-component_of_CURRENTS"},"data":[0,0,0,0,0,0,0,0,0,0,0,0,0,0,0,0,0,0,0,0,0,0,0,0,0,0,0,0,0,0,0,0,0,0,0,0,0,0,0,0,0,0,0,0,0,0,0,0,0,0,0,0,0,0,0,0,0,0,0.0303,0.0302,0,0.0224,0.0223,0.0222,0.0144,0.0144,0.0143,0.0142,0.0028,0.0025,0.0023,0,0,0,0,0,0,0,0,0,0,0,0,0,0.0331,0.0331,0.0303,0.0302,0.0301,0.0224,0.0223,0.0221,0.0144,0.0144,0.0143,0.0142,0.0028,0.0026,0.0023,0,0,0,0,0,0,0,0,0,0,0,0,0,0.029,0.0331,0.0303,0.0256,0.0251,0.0224,0.0223,0.0221,0.0145,0.0144,0.0142,0.0141,0.0029,0.0026,0.0022,0.0023,0,0,0.0012,0.001,0,0,0,0,0,0,0,0,0.0292,0.0288,0.0263,0.0259,0.0254,0.0196,0.0191,0.0154,0.0145,0.0182,0.0142,0.0141,0.0083,0.0075,0.0059,0.0017,0.0012,0.0011,0.0009,0.0008,0.0007,0,0,0,0,0,0,0,0.0295,0.0291,0.0268,0.0263,0.0257,0.022,0.0213,0.0183,0.0137,0.0179,0.0173,0.017,0.008,0.0063,0.0056,0.0011,0.0011,0.0008,0.0006,0.0005,-0.0042,-0.0041,0,0,0,0,0,0,0.0315,0.0294,0.0271,0.0266,0.0274,0.0221,0.0213,0.0213,0.0138,0.0126,0.0171,0.0167,0.0069,0.006,0.0051,0.0061,0.0008,0.0004,0.0002,-0.0043,-0.0042,-0.0041,0,0,0,0,0,0,0.0316,0.0314,0.0274,0.028,0.0273,0.0222,0.0222,0.0212,0.0193,0.0133,0.012,0.0164,0.0068,0.0056,0.0031,0.0056,0.0003,-0.0001,-0.0044,-0.0042,-0.0041,0.0072,0,0,0,0,0,0,0.0317,0.0315,0.0317,0.0282,0.0274,0.0268,0.0223,0.0211,0.0195,0.0188,0.0122,0.011,0.0066,0.0037,0.0027,0.005,-0.0003,-0.0045,-0.0043,-0.0041,0.0067,0.0077,0.0086,0,0,0,0,0,0.0319,0.0335,0.0318,0.0315,0.0281,0.0269,0.0262,0.0219,0.0196,0.0196,0.0152,0.0112,0.004,0.0035,0.0023,0.0046,-0.0046,-0.0044,-0.0042,0.0063,0.0075,0.0086,0,0,0,0,0,0,0.0348,0.0328,0.0309,0.0317,0.0298,0.0258,0.0253,0.0228,0.0193,0.0183,0.0123,0.0109,0.0096,0.0055,0.005,0.0036,-0.0008,-0.0009,0.0075,0.0086,0.0095,0.0117,-0.0006,0,0,0,0,0,0.0359,0.0362,0.0337,0.0342,0.0336,0.0296,0.0284,0.026,0.0227,0.0209,0.0166,0.0122,0.0097,0.0079,0.0045,0.0039,0.0012,0.0045,0.0054,0.0062,0.0073,0.0065,0.0076,-0.0034,-0.0034,-0.0034,0,0,0.037,0.0361,0.0361,0.0349,0.0326,0.0333,0.0285,0.0277,0.0283,0.0204,0.0194,0.0153,0.0102,0.0095,0.0086,0.0063,0.0079,0.0065,0.0073,0.0078,0.0069,0.008,0.0089,-0.0033,-0.0033,-0.0033,0,0,0.0404,0.0389,0.0404,0.0396,0.0377,0.036,0.0364,0.033,0.0314,0.03,0.0253,0.0232,0.0179,0.0159,0.014,0.0181,0.0129,0.0164,0.0229,0.0223,0.0232,0.024,0.0223,0.0228,0.0169,0.0169,0.0169,0,0.0415,0.0434,0.0407,0.0421,0.0424,0.038,0.0402,0.0386,0.0348,0.0351,0.0309,0.0262,0.0214,0.0228,0.0234,0.0205,0.0185,0.0194,0.0237,0.0244,0.025,0.0231,0.0235,0.0175,0.0174,0.0173,0.0173,0,0.0461,0.0473,0.0484,0.0489,0.0492,0.0502,0.0485,0.0484,0.0457,0.044,0.0438,0.0376,0.0347,0.0334,0.029,0.0318,0.0284,0.0253,0.0215,0.0269,0.0244,0.0247,0.0183,0.0181,0.0179,0.0178,0,0,0.0486,0.0511,0.0512,0.0533,0.0529,0.054,0.0563,0.0577,0.0604,0.0557,0.0591,0.0536,0.0497,0.0473,0.0424,0.0415,0.0433,0.0354,0.0351,0.0348,0.0412,0.0318,0.0311,0.0409,0.041,0.041,0.0379,0,0.0525,0.0575,0.0578,0.0627,0.0652,0.0639,0.0672,0.0679,0.067,0.069,0.0643,0.0644,0.0552,0.0545,0.0521,0.0465,0.0444,0.0444,0.035,0.0348,0.0267,0.0313,0.0275,0.0237,0.0381,0.0381,0.0382,0,0.0563,0.0595,0.0652,0.0708,0.0719,0.0743,0.0795,0.0819,0.0839,0.0833,0.0821,0.078,0.0765,0.0676,0.0601,0.0603,0.0511,0.0457,0.0454,0.0329,0.0259,0.0204,0.0236,0.0386,0.0385,0.0385,0.0385,0,0.0592,0.0648,0.07,0.0713,0.0766,0.0797,0.0826,0.0858,0.0898,0.0927,0.0956,0.0917,0.0901,0.0806,0.067,0.0639,0.0589,0.0529,0.0358,0.035,0.0279,0.0262,0.0469,0.0469,0.0469,0.0469,0.0469,0,0.063,0.0669,0.0716,0.0742,0.0815,0.0838,0.0915,0.0941,0.0996,0.1068,0.1024,0.1072,0.0931,0.0878,0.0737,0.0564,0.0632,0.0379,0.034,0.0315,0.0302,0.0395,0.0387,0.0468,0.0468,0.0468,0.0468,0,0.0641,0.0673,0.0735,0.0801,0.0826,0.0873,0.0962,0.1027,0.1071,0.1166,0.1185,0.119,0.1126,0.0976,0.0835,0.0642,0.0501,0.0414,0.0386,0.0342,0.0244,0.0242,0.0217,0.0213,0.021,0.0208,0.0206,0,0.0649,0.0681,0.0764,0.0808,0.0836,0.0911,0.0976,0.1046,0.1127,0.1249,0.1312,0.129,0.1266,0.1022,0.0725,0.0459,0.0479,0.0228,0.0141,0.0256,0.0221,0.0224,0.0226,0.0099,0.0096,0.0094,0.0092,0,0.0663,0.0688,0.0743,0.0832,0.0902,0.0997,0.1098,0.118,0.1292,0.1397,0.1533,0.1528,0.1255,0.096,0.0559,0.0381,0.0265,0.0167,0.0332,0.0154,0.0138,0.0105,0.0113,0.0072,0.0074,0.0076,0.0077,0.0077,0.0665,0.0703,0.0778,0.0864,0.0952,0.1084,0.1186,0.1329,0.1493,0.1606,0.1614,0.1548,0.1207,0.0631,0.0371,0.0086,0.0089,-0.0047,-0.0037,-0.0024,-0.0047,-0.0069,-0.0178,-0.0177,-0.0177,-0.0176,-0.0176,0,0.0671,0.0725,0.0808,0.0927,0.1036,0.1078,0.1273,0.1414,0.1637,0.1609,0.1652,0.1277,0.0911,0.0599,0.0105,-0.0196,-0.0178,-0.0235,-0.0159,-0.014,-0.0123,-0.0147,-0.0306,-0.0306,-0.0307,-0.0307,0,0,0.0677,0.0753,0.0807,0.0977,0.1064,0.1236,0.136,0.1579,0.1646,0.1635,0.1491,0.1251,0.0889,0.0508,0.016,-0.0069,-0.0027,-0.0105,0.0012,0.0158,0.0179,-0.0023,-0.0041,0,0,0,0,0]}],[{"header":{"parameterUnit":"m.s-1","parameterCategory":2,"la1":30.2991,"la2":30.254,"lo1":-89.0895,"lo2":-89.0444,"dy":0.0017,"dx":0.0017,"nx":28,"ny":28,"refTime":"2024-10-12T03:00:00:Z","depth":"4","parameterNumber":2,"parameterNumberName":"U-component_of_CURRENTS"},"data":[0,0,0,0,0,0,0,0,0,0,0,0,0,0,0,0,0,0,0,0,0,0,0,0,0,0,0,0,0,0,0,0,0,0,0,0,0,0,0,0,0,0,0,0,0,0,0,0,0,0,0,0,0,0,0,0,0,0,0.0683,0.0684,0,0.0714,0.0714,0.0714,0.0741,0.0741,0.0742,0.0743,0.0805,0.0806,0.0807,0,0,0,0,0,0,0,0,0,0,0,0,0,0.0627,0.0627,0.0683,0.0684,0.0685,0.0714,0.0714,0.0714,0.0741,0.0742,0.0742,0.0743,0.0805,0.0806,0.0807,0,0,0,0,0,0,0,0,0,0,0,0,0,0.0648,0.0627,0.0683,0.0706,0.0709,0.0714,0.0714,0.0714,0.074,0.0742,0.0743,0.0744,0.0805,0.0806,0.0808,0.0792,0,0,0.0812,0.0812,0,0,0,0,0,0,0,0,0.0647,0.065,0.0702,0.0704,0.0707,0.0729,0.0717,0.0743,0.074,0.0723,0.0743,0.0744,0.0786,0.0789,0.0784,0.0795,0.0798,0.0812,0.0813,0.0813,0.0814,0,0,0,0,0,0,0,0.0646,0.0649,0.069,0.0703,0.0706,0.0707,0.0711,0.0721,0.0744,0.0724,0.0728,0.0739,0.0787,0.0782,0.0786,0.0799,0.0812,0.0813,0.0814,0.0814,0.0898,0.0899,0,0,0,0,0,0,0.0652,0.0647,0.0689,0.0692,0.0686,0.0708,0.0712,0.0717,0.0743,0.0749,0.0738,0.074,0.0779,0.0784,0.0788,0.0838,0.0813,0.0815,0.0815,0.0896,0.0898,0.0899,0,0,0,0,0,0,0.0651,0.0655,0.0688,0.0675,0.068,0.0708,0.0713,0.0717,0.0735,0.0754,0.076,0.0755,0.078,0.0786,0.0825,0.0839,0.0815,0.0816,0.0895,0.0897,0.0899,0.0896,0,0,0,0,0,0,0.0649,0.0654,0.066,0.0675,0.0681,0.0712,0.0712,0.0717,0.0741,0.0745,0.077,0.0776,0.0782,0.0823,0.0826,0.084,0.0818,0.0893,0.0896,0.0898,0.0895,0.0898,0.0901,0,0,0,0,0,0.0647,0.0646,0.066,0.0666,0.0688,0.0714,0.0716,0.0737,0.0741,0.0755,0.0777,0.0776,0.0842,0.0825,0.0829,0.0843,0.0892,0.0895,0.0898,0.0893,0.0898,0.0901,0,0,0,0,0,0,0.0628,0.065,0.0665,0.0674,0.0705,0.0721,0.0736,0.0745,0.0769,0.0785,0.0789,0.0796,0.0841,0.0845,0.0826,0.0879,0.0869,0.0873,0.0864,0.0868,0.0871,0.0932,0.0819,0,0,0,0,0,0.0627,0.0631,0.0664,0.0675,0.0695,0.0718,0.0731,0.0754,0.0777,0.0789,0.0807,0.0831,0.0851,0.0863,0.089,0.0907,0.0908,0.0923,0.0926,0.0929,0.0984,0.0987,0.0995,0.091,0.091,0.0909,0,0,0.0627,0.0637,0.0644,0.0672,0.0697,0.0724,0.0729,0.0769,0.0793,0.0793,0.0834,0.085,0.0863,0.0894,0.0912,0.0899,0.0941,0.0933,0.0934,0.0989,0.0991,0.0999,0.1006,0.0912,0.0911,0.0911,0,0,0.0625,0.0642,0.065,0.068,0.0729,0.0743,0.076,0.0799,0.0824,0.0871,0.0872,0.0906,0.0935,0.0943,0.0948,0.0987,0.0966,0.0986,0.1039,0.1039,0.1046,0.1053,0.1004,0.1007,0.0976,0.0976,0.0976,0,0.0618,0.0638,0.066,0.0684,0.0715,0.0753,0.0786,0.081,0.0857,0.0883,0.0901,0.0961,0.0967,0.0988,0.1013,0.0995,0.0981,0.1012,0.1042,0.1049,0.1056,0.1005,0.1008,0.0977,0.0977,0.0977,0.0977,0,0.0635,0.0656,0.067,0.0706,0.0742,0.078,0.0829,0.0867,0.0907,0.0935,0.1002,0.1023,0.1061,0.1053,0.1055,0.1095,0.106,0.1046,0.1026,0.1064,0.1007,0.101,0.0977,0.0977,0.0977,0.0977,0,0,0.0599,0.0661,0.067,0.0701,0.0764,0.0796,0.0847,0.0901,0.094,0.1004,0.1055,0.1105,0.1135,0.1148,0.1136,0.1151,0.1157,0.1135,0.1134,0.1077,0.1127,0.1089,0.1087,0.1142,0.1144,0.1146,0.1045,0,0.0605,0.0644,0.0681,0.0737,0.077,0.0829,0.0875,0.0937,0.0989,0.1045,0.1093,0.1152,0.1156,0.1189,0.1203,0.1178,0.1177,0.1185,0.1112,0.111,0.1065,0.1095,0.1153,0.1047,0.1047,0.1048,0.1048,0,0.0613,0.0637,0.0691,0.0766,0.0792,0.0836,0.0927,0.0982,0.1061,0.1108,0.1174,0.121,0.1254,0.1264,0.1251,0.1254,0.1222,0.1198,0.1192,0.1182,0.1082,0.102,0.1053,0.1053,0.1052,0.1052,0.1052,0,0.059,0.0648,0.0689,0.0718,0.0806,0.0857,0.0923,0.101,0.1065,0.1166,0.1205,0.1258,0.1307,0.1288,0.1274,0.1259,0.1255,0.1195,0.1122,0.1114,0.1174,0.117,0.1214,0.1214,0.1214,0.1214,0.1214,0,0.0578,0.0612,0.0688,0.072,0.0783,0.0874,0.0948,0.1025,0.1124,0.1183,0.1251,0.1289,0.1334,0.1333,0.1285,0.1221,0.1248,0.1164,0.1111,0.1165,0.1161,0.1171,0.1168,0.121,0.1211,0.1212,0.1213,0,0.0548,0.0593,0.0645,0.0742,0.0778,0.0842,0.0959,0.1012,0.1118,0.1194,0.124,0.1328,0.1322,0.1318,0.1293,0.1237,0.1173,0.1148,0.1202,0.1147,0.1009,0.1006,0.101,0.1008,0.1007,0.1006,0.1005,0,0.0523,0.0549,0.0652,0.0687,0.0737,0.0823,0.0883,0.1006,0.1059,0.1192,0.1224,0.1289,0.1316,0.1221,0.1233,0.1129,0.1127,0.1086,0.1079,0.1053,0.1,0.1,0.0999,0.1003,0.1002,0.1002,0.1002,0,0.0472,0.0525,0.0575,0.0645,0.071,0.0759,0.0861,0.0885,0.103,0.1119,0.1184,0.12,0.12,0.1178,0.1154,0.1073,0.1106,0.107,0.1071,0.1064,0.1044,0.0993,0.0994,0.0997,0.0998,0.0998,0.0998,0,0.0434,0.0454,0.0527,0.0582,0.0652,0.0692,0.0743,0.0818,0.0886,0.1055,0.107,0.1114,0.1203,0.1147,0.1097,0.1054,0.1005,0.0967,0.0972,0.0977,0.102,0.0993,0.091,0,0,0,0,0,0.0389,0.041,0.0454,0.0515,0.0583,0.0625,0.0725,0.078,0.0902,0.0934,0.101,0.1007,0.0999,0.102,0.0953,0.102,0.0975,0.0939,0.0926,0.0971,0.0976,0.1034,0,0,0,0,0,0,0.0365,0.0403,0.0424,0.0433,0.047,0.0531,0.059,0.0681,0.0702,0.0841,0.083,0.0952,0.093,0.1013,0.0934,0.0936,0.0909,0.098,0.0977,0.0968,0.0973,0.0977,0.1038,0,0,0,0,0]},{"header":{"parameterUnit":"m.s-1","parameterCategory":2,"la1":30.2991,"la2":30.254,"lo1":-89.0895,"lo2":-89.0444,"dy":0.0017,"dx":0.0017,"nx":28,"ny":28,"refTime":"2024-10-12T03:00:00:Z","depth":"4","parameterNumber":3,"parameterNumberName":"V-component_of_CURRENTS"},"data":[0,0,0,0,0,0,0,0,0,0,0,0,0,0,0,0,0,0,0,0,0,0,0,0,0,0,0,0,0,0,0,0,0,0,0,0,0,0,0,0,0,0,0,0,0,0,0,0,0,0,0,0,0,0,0,0,0,0,0.0248,0.0247,0,0.0199,0.0198,0.0197,0.018,0.018,0.0181,0.0181,0.0116,0.0114,0.0111,0,0,0,0,0,0,0,0,0,0,0,0,0,0.0263,0.0263,0.0248,0.0247,0.0247,0.0199,0.0198,0.0197,0.018,0.018,0.0181,0.0181,0.0116,0.0114,0.0111,0,0,0,0,0,0,0,0,0,0,0,0,0,0.0237,0.0263,0.0248,0.0235,0.0233,0.0199,0.0198,0.0197,0.018,0.018,0.0181,0.0182,0.0117,0.0114,0.0111,0.0078,0,0,0.0101,0.01,0,0,0,0,0,0,0,0,0.0239,0.0236,0.0237,0.0236,0.0234,0.0199,0.018,0.0157,0.0179,0.0197,0.0181,0.0182,0.0143,0.0138,0.0123,0.0074,0.0072,0.0101,0.0099,0.0097,0.0097,0,0,0,0,0,0,0,0.0241,0.0238,0.0225,0.0237,0.0235,0.021,0.0207,0.0175,0.0164,0.0195,0.0195,0.0194,0.0142,0.0127,0.0122,0.0071,0.0101,0.0098,0.0096,0.0095,-0.0011,-0.0011,0,0,0,0,0,0,0.0255,0.024,0.0227,0.0224,0.0241,0.021,0.0206,0.0207,0.0165,0.016,0.0193,0.0193,0.0132,0.0126,0.0119,0.0092,0.0097,0.0094,0.0093,-0.001,-0.0011,-0.0012,0,0,0,0,0,0,0.0256,0.0254,0.0229,0.0233,0.0229,0.021,0.021,0.0206,0.0197,0.0164,0.0159,0.019,0.0132,0.0124,0.0093,0.0089,0.0093,0.009,-0.0009,-0.001,-0.0011,0.0028,0,0,0,0,0,0,0.0256,0.0255,0.0262,0.0234,0.0229,0.0212,0.0209,0.0204,0.0197,0.0196,0.0159,0.0154,0.0132,0.0098,0.009,0.0085,0.0087,-0.0008,-0.0009,-0.0011,0.0028,0.0028,0.0029,0,0,0,0,0,0.0257,0.026,0.0263,0.0261,0.0239,0.0213,0.0207,0.0193,0.0196,0.0189,0.0166,0.0155,0.0082,0.0095,0.0086,0.0079,-0.0007,-0.0009,-0.0011,0.0028,0.0028,0.0029,0,0,0,0,0,0,0.0267,0.0258,0.026,0.0261,0.0243,0.0211,0.0207,0.0197,0.0172,0.0174,0.0145,0.0137,0.0105,0.0083,0.0098,0.0041,0.0035,0.0031,0.0067,0.0068,0.0068,0.0068,0.0085,0,0,0,0,0,0.0275,0.0279,0.026,0.0262,0.0256,0.0233,0.0223,0.0212,0.0187,0.0177,0.0154,0.0123,0.0086,0.0073,0.0037,0.0009,-0.002,-0.0004,-0.0003,-0.0002,-0.0011,-0.0061,-0.0066,-0.0018,-0.0018,-0.0018,0,0,0.028,0.0277,0.0279,0.0265,0.0252,0.024,0.0228,0.0213,0.0203,0.0173,0.0154,0.0122,0.0077,0.0045,0.0029,0.003,-0.003,-0.0005,-0.0004,-0.0013,-0.0064,-0.0068,-0.0072,-0.0019,-0.0019,-0.0019,0,0,0.0286,0.0289,0.0292,0.0281,0.0267,0.0248,0.0248,0.022,0.0209,0.0182,0.0156,0.0121,0.0076,0.004,0.0016,-0.0006,-0.0029,-0.0012,-0.0005,-0.0053,-0.0057,-0.0061,-0.009,-0.0097,-0.0007,-0.0007,-0.0007,0,0.0294,0.0297,0.0287,0.0285,0.0279,0.0256,0.025,0.023,0.0196,0.0182,0.0182,0.0101,0.0068,0.0018,0.0011,-0.0005,-0.0027,0.0003,-0.0051,-0.0055,-0.006,-0.009,-0.0098,-0.0005,-0.0005,-0.0006,-0.0006,0,0.03,0.0304,0.0304,0.0299,0.0285,0.0276,0.0251,0.0238,0.0224,0.0198,0.0152,0.0104,0.0057,0.0041,0.0019,-0.0031,-0.0033,-0.0045,-0.0045,-0.0062,-0.0092,-0.0101,-0.0003,-0.0003,-0.0004,-0.0004,0,0,0.0312,0.0311,0.0311,0.0316,0.0294,0.0283,0.0266,0.0235,0.0222,0.0186,0.0159,0.0093,0.007,0.004,0.0009,-0.0033,-0.0081,-0.0046,-0.005,-0.0064,-0.0172,-0.0147,-0.0155,-0.0094,-0.0096,-0.0098,-0.0174,0,0.0321,0.033,0.0319,0.0319,0.0319,0.0297,0.0284,0.0254,0.022,0.0188,0.0133,0.0095,0.007,0.0054,0.0004,-0.0067,-0.0106,-0.0059,-0.0165,-0.0168,-0.0135,-0.0166,-0.0103,-0.018,-0.0183,-0.0184,-0.0185,0,0.0329,0.0335,0.0345,0.0339,0.0337,0.0336,0.031,0.0296,0.0241,0.0213,0.0161,0.0117,0.0047,0.0035,-0.009,-0.0054,-0.0112,-0.0162,-0.0167,-0.0167,-0.0161,-0.0167,-0.0202,-0.0201,-0.02,-0.0199,-0.0198,0,0.035,0.035,0.0363,0.0363,0.0353,0.0357,0.0353,0.0309,0.0299,0.0236,0.0212,0.0122,0.0088,-0.001,-0.011,-0.0101,-0.0244,-0.0246,-0.0278,-0.0276,-0.029,-0.0285,-0.0335,-0.0335,-0.0335,-0.0335,-0.0335,0,0.0361,0.037,0.0383,0.0394,0.0409,0.0394,0.0394,0.0374,0.034,0.0323,0.024,0.0202,0.0075,-0.0017,-0.0113,-0.0222,-0.0247,-0.0288,-0.0302,-0.027,-0.0262,-0.0295,-0.0289,-0.0338,-0.0337,-0.0336,-0.0336,0,0.0375,0.0384,0.0404,0.0416,0.0425,0.0441,0.0445,0.0441,0.0405,0.0381,0.0369,0.0261,0.0137,0.0006,-0.0153,-0.021,-0.0328,-0.0357,-0.0306,-0.0314,-0.0325,-0.0317,-0.0405,-0.0405,-0.0405,-0.0405,-0.0405,0,0.0378,0.0395,0.0433,0.0455,0.0467,0.0487,0.0502,0.0483,0.0478,0.0415,0.0407,0.0292,0.0205,-0.0005,-0.0143,-0.0325,-0.0341,-0.0385,-0.0368,-0.0333,-0.0337,-0.0328,-0.032,-0.0405,-0.0405,-0.0405,-0.0405,0,0.0381,0.0406,0.0424,0.0481,0.0512,0.0527,0.0551,0.0551,0.0527,0.0504,0.0433,0.0317,0.0177,0.0008,-0.013,-0.026,-0.0353,-0.0385,-0.0386,-0.0371,-0.0333,-0.0336,-0.0328,-0.0405,-0.0405,-0.0405,-0.0405,0,0.0383,0.04,0.0442,0.0485,0.0527,0.0547,0.0556,0.055,0.0542,0.0493,0.0474,0.0312,0.0233,0.0041,-0.0093,-0.0216,-0.0241,-0.0257,-0.0265,-0.0267,-0.0202,-0.0133,-0.0165,0,0,0,0,0,0.0378,0.0399,0.044,0.0479,0.0525,0.055,0.0574,0.0576,0.0568,0.0535,0.0506,0.0376,0.0175,0.0075,-0.0045,-0.0104,-0.0272,-0.0245,-0.0296,-0.0404,-0.0404,-0.035,0,0,0,0,0,0,0.0372,0.041,0.0429,0.0464,0.0498,0.0535,0.0553,0.0553,0.0527,0.0514,0.0399,0.0372,0.016,0.0241,-0.0042,-0.008,-0.012,-0.0337,-0.0339,-0.0404,-0.0404,-0.0404,-0.0349,0,0,0,0,0]}]]